Location: Unspecified
(25.6830°N, 0.0000°E)
Time: 22:21:42
(UTC+00:00)

N. Korean satellite - Visible Passes

Search period start: 17 November 2019 00:00
Search period end: 27 November 2019 00:00
Orbit: 456 x 506 km, 97.2° (Epoch: 17 November)

Date Brightness Start Highest point End Pass type
(mag) Time Alt. Az. Time Alt. Az. Time Alt. Az.
17 Nov 7.4 05:31:44 10° NNE 05:35:21 55° E 05:38:54 10° S visible
17 Nov 7.7 17:32:08 10° S 17:35:36 49° W 17:39:07 10° NNW visible
18 Nov 9.3 05:07:00 10° NE 05:09:56 22° E 05:12:49 10° SSE visible
19 Nov 10.2 18:17:04 10° WSW 18:18:18 11° W 18:19:34 10° WNW visible
20 Nov 6.5 05:48:53 10° N 05:52:32 76° WNW 05:56:08 10° SSW visible
20 Nov 9.1 17:49:45 10° SSW 17:52:50 26° W 17:55:57 10° NW visible
21 Nov 8.1 05:23:42 10° NNE 05:27:10 40° E 05:30:34 10° S visible
22 Nov 9.7 04:59:15 10° NE 05:01:43 17° E 05:04:09 10° SE visible
23 Nov 9.9 18:07:54 10° SW 18:10:04 15° W 18:12:16 10° WNW visible
24 Nov 6.7 05:40:43 10° NNE 05:44:21 80° ESE 05:47:54 10° S visible
24 Nov 8.5 17:41:16 10° SSW 17:44:36 35° W 17:48:00 10° NNW visible
25 Nov 8.7 05:15:43 10° NE 05:18:56 30° E 05:22:07 10° SSE visible
26 Nov 10.0 04:51:43 10° ENE 04:53:27 13° E 04:55:10 10° SE visible
